Simultaneous Nadir Overpasses (SNOs) Predictions

Prediction of SNOs between GOES-17 and METOP-B Satellite Orbit:

Table of predicted SNOs for the next 14.0 days since TLE Epoch: 3/28/2025
Index Date Time (GOES-17) GOES-17 Lat,Lon METOP-B Lat,Lon Distance(km) Time Diff (sec)
1 03/29/2025 04:15:23 -0.02,-104.38 -0.52,-106.52 244.39 80
2 03/30/2025 03:57:25 -0.02,-104.39 0.60,-101.55 323.20 80
3 03/31/2025 16:16:19 0.02,-104.43 0.41,-106.14 195.62 80
4 04/01/2025 15:53:02 0.02,-104.43 -0.72,-101.17 371.62 80
5 04/03/2025 04:12:04 -0.02,-104.39 -0.33,-105.79 159.65 80
6 04/04/2025 03:54:06 -0.02,-104.39 0.75,-100.81 407.67 80
7 04/05/2025 16:13:00 0.02,-104.43 0.24,-105.40 111.05 80
8 04/06/2025 15:49:42 0.02,-104.43 -0.85,-100.42 456.44 80
9 04/08/2025 04:08:44 -0.02,-104.40 -0.17,-105.05 74.25 80
10 04/09/2025 03:50:45 -0.01,-104.40 0.92,-100.06 493.75 80
11 04/10/2025 16:09:40 0.01,-104.45 0.04,-104.66 23.88 80
